Location: Abraham Lincoln Continuation High School
(33.9711°N, 117.3662°W)
Time: 00:27:45
(UTC+00:00)

Iridium 4 Rocket - Pass Details

Date: 19 January 2021
Orbit: 583 x 906 km, 86.9° (Epoch: 03 March)

Event Time Altitude Azimuth Distance (km) Brightness Sun altitude
Rises 13:56:41 0° 127° (SE) 3,316 8.3 -11.8°
Reaches altitude 10° 14:00:37 10° 98° (E) 2,460 7.6 -11.1°
Maximum altitude 14:02:40 12° 76° (ENE) 2,345 7.0 -10.7°
Drops below altitude 10° 14:04:45 10° 54° (NE) 2,524 6.7 -10.2°
Sets 14:08:55 0° 26° (NNE) 3,511 7.0 -9.4°
